AirNav   Pilot Hours Calculator
 
 623 users online  

WY11 A Bar A Ranch Airport
Encampment, Wyoming, USA

GOING TO ENCAMPMENT?


FAA INFORMATION EFFECTIVE 07 NOVEMBER 2019

Location

FAA Identifier: WY11
Lat/Long: 41-09-29.8870N 106-33-27.1110W
41-09.498117N 106-33.451850W
41.1583019,-106.5575308
(estimated)
Elevation: 7880 ft. / 2402 m (estimated)
Variation: 13E (1985)
From city: 11 miles E of ENCAMPMENT, WY
Time zone: UTC -7 (UTC -6 during Daylight Saving Time)
Zip code: 82325

Airport Operations

Airport use: Private use. Permission required prior to landing
Activation date: 11/1963
Control tower: no
ARTCC: DENVER CENTER
FSS: CASPER FLIGHT SERVICE STATION
Attendance: UNATNDD
Wind indicator: yes
Segmented circle: no
Landing fee: yes

Airport Communications

UNICOM: 122.8

Nearby radio navigation aids

VOR radial/distance  VOR name  Freq  Var
LARr240/39.2LARAMIE VOR/DME117.6014E

 
NDB name  Hdg/Dist  Freq  Var  ID
SARATOGA132/21.226612ESAA ... .- .-

Airport Services

Airframe service: NONE
Powerplant service: NONE

Runway Information

Runway NW/SE

Dimensions: 5704 x 50 ft. / 1739 x 15 m
Surface: asphalt, in excellent condition
RUNWAY NW  RUNWAY SE
Traffic pattern: leftleft

Airport Ownership and Management from official FAA records

Ownership: Privately-owned
Owner: A BAR A RANCH
PO BOX 247
ENCAMPMENT, WY 82325
Phone 307-327-5454
Manager: JUSTIN HOWE
PO BOX 247
ENCAMPMENT, WY 82325
Phone 307-327-5454

Airport Operational Statistics

Aircraft based on the field: 1
Single engine airplanes: 1
    

Additional Remarks

FREQUENT CROSS WIND.
NUMEROUS HILLS AROUND ARPT. HILL ON S END OF RY FROM 3800 FT TO 4900 FT.
FLY OVER PRIOR TO LANDING RECOMMENDED.
CALL A BAR A RANCH TO ARRANGE PICK-UP AND RY SECURITY 307-327-5454.
ROAD CROSSES MID-FLD.
UNICOM TO A BAR A AVBL FM AIR ONLY.
RANCH HQ 4 MIS E OF RWY.
FOR CD CTC DENVER ARTCC AT 303-651-4257.

Instrument Procedures

There are no published instrument procedures at WY11.

Some nearby airports with instrument procedures:

KSAA - Shively Field Airport (21 nm NW)
33V - Walden-Jackson County Airport (28 nm SE)
KLAR - Laramie Regional Airport (41 nm E)
KSBS - Steamboat Springs Airport/Bob Adams Field (41 nm S)
KDWX - Dixon Airport (43 nm W)
 
Loc | Ops | Rwys | IFR | FBO | Links
Com | Nav | Svcs | Stats | Notes

AirBoss

 
Area around WY11 (A Bar A Ranch Airport)
 
Road maps at: MapQuest Bing Google
 
Aerial photo
WARNING: Photo may not be current or correct
Aerial photo of WY11 (A Bar A Ranch Airport)
looking southeast.

Do you have a better or more recent aerial photo of A Bar A Ranch Airport that you would like to share? If so, please send us your photo.

 
Sectional chart

 
Airport distance calculator
Flying to A Bar A Ranch Airport? Find the distance to fly.

From to WY11

Sunrise and sunset
Times for 19-Nov-2019
 Local
(UTC-7)
 Zulu
(UTC)
Morning civil twilight06:3013:30
Sunrise07:0014:00
Sunset16:4323:43
Evening civil twilight17:1300:13

Current date and time
Zulu (UTC)  20-Nov-2019 05:05:04
Local (UTC-7)  19-Nov-2019 22:05:04
 
METAR
KSAA 
21nm NW 
200455Z AUTO 13006KT 10SM CLR 05/M05 A2976 RMK AO2
K33V 
28nm SE 
200435Z AUTO 18008KT 10SM CLR 03/M08 A2985 RMK AO1
KSBS 
41nm S 
200455Z AUTO 00000KT 10SM BKN110 03/M05 A2978 RMK AO1 T00321052 401551056
KLAR 
41nm E 
200453Z AUTO 22010KT 10SM CLR 02/M08 A2976 RMK AO2 SLP023 T00171078
TAF
KLAR 
41nm E 
191744Z 1918/2018 23014G24KT P6SM BKN200 FM200000 22009KT P6SM BKN150 FM201200 05008KT P6SM VCSH OVC050 FM201500 04011KT 5SM -SNRA BR OVC020
KRWL 
47nm NW 
191744Z 1918/2018 22020G30KT P6SM BKN200 FM192300 23015G25KT P6SM BKN200 FM200100 23008KT P6SM BKN150 FM201100 05005KT P6SM VCSH OVC040 FM201500 05010KT 2SM -SN BR OVC010
NOTAMs
Click for the latest NOTAMs
NOTAMs are issued by the DoD/FAA and will open in a separate window not controlled by AirNav.

 

 
 

Would you like to see your business listed on this page?

 If your business provides an interesting product or service to pilots, flight crews, aircraft, or users of the A Bar A Ranch Airport, you should consider listing it here.  To start the listing process, click on the button below
 
Add a business
 

Other Pages about A Bar A Ranch Airport

Update a link
 
Copyright © AirNav, LLC. All rights reserved. Privacy Policy  Contact